MEASAT-3A

Last updated on Tue Sep 15 2026 00:03:08 GMT+0000 (Coordinated Universal Time)

1 35362U 09032A 26257.44007337 -.00000119 00000+0 00000+0 0 9993 2 35362 0.0417 326.6930 0001889 213.1886 131.9738 1.00271585 8927
UTC large
Height (km)
Speed (km/s)
/
Latitude / Longitude
Inclination (degrees)
Orbital Period (minutes)
Azimuth
Elevation
Range (km)
Doppler Factor

Next 0 passes for location: London (51.5072 / 0.1276)

No passes found over London.
MEASAT-3A